Location: Unspecified
(0.0000°N, 0.0000°E)
Time: 06:07:43
(UTC+00:00)

Vanguard 1 - All Passes

Search period start: 29 March 2015 00:00
Search period end: 08 April 2015 00:00
Orbit: 653 x 3833 km, 34.2° (Epoch: 27 March)

Date Brightness Start Highest point End Pass type
(mag) Time Alt. Az. Time Alt. Az. Time Alt. Az.
29 Mar - 00:34:09 10° W 00:52:14 43° SSW 01:13:35 10° SE visible
29 Mar - 03:08:28 10° WSW 03:24:40 21° SSW 03:38:11 10° SSE visible
29 Mar - 05:47:00 10° SSW 05:57:26 17° S 06:05:35 10° SE visible
29 Mar - 08:14:00 10° SSW 08:25:14 31° SSE 08:32:09 10° E daylight
29 Mar - 10:38:49 10° WSW 10:47:38 65° NW 10:52:50 10° NE daylight
29 Mar - 20:11:54 10° NNW 20:21:39 41° NE 20:38:44 10° ESE visible
29 Mar - 22:31:34 10° WNW 22:46:03 76° SW 23:09:17 10° SE visible
30 Mar - 00:57:23 10° W 01:15:20 35° SSW 01:35:10 10° SSE visible
30 Mar - 03:33:59 10° SW 03:48:38 19° S 04:00:39 10° SSE visible
30 Mar - 06:09:21 10° SSW 06:20:48 19° S 06:29:18 10° SE daylight
30 Mar - 08:35:23 10° SW 08:47:26 43° SSE 08:54:17 10° E daylight
30 Mar - 11:01:11 10° WSW 11:08:48 38° NW 11:13:37 10° NNE daylight
30 Mar - 18:19:03 10° NNE 18:20:25 11° NE 18:22:54 10° NE visible
30 Mar - 20:32:39 10° NW 20:43:07 55° NE 21:02:07 10° ESE visible
30 Mar - 22:53:22 10° WNW 23:08:18 62° SSW 23:31:08 10° SE visible
31 Mar - 01:21:13 10° WSW 01:38:45 29° SSW 01:56:53 10° SSE visible
31 Mar - 03:59:04 10° SW 04:12:40 18° S 04:23:47 10° SE visible
31 Mar - 06:31:11 10° SSW 06:43:55 24° SSE 06:52:41 10° ESE daylight
31 Mar - 08:56:57 10° SW 09:09:20 61° SSE 09:16:00 10° ENE daylight
31 Mar - 11:24:10 10° W 11:29:56 22° NW 11:33:57 10° N daylight
31 Mar - 18:36:56 10° N 18:42:11 17° NE 18:50:18 10° ENE visible
31 Mar - 20:53:37 10° NW 21:04:39 72° NE 21:24:56 10° ESE visible
31 Mar - 23:15:32 10° WNW 23:30:51 50° SSW 23:52:52 10° SE visible
01 Apr - 01:45:39 10° WSW 02:02:28 24° SSW 02:18:52 10° SSE visible
01 Apr - 04:23:15 10° SW 04:36:38 18° S 04:47:28 10° SE visible
01 Apr - 06:52:47 10° SSW 07:06:44 30° SSE 07:15:35 10° ESE daylight
01 Apr - 09:18:47 10° SW 09:30:57 88° SE 09:37:24 10° NE daylight
01 Apr - 11:48:27 10° WNW 11:51:12 12° NW 11:53:14 10° NNW daylight
01 Apr - 18:56:48 10° NNW 19:03:43 26° NE 19:15:12 10° E visible
01 Apr - 21:14:49 10° NW 21:26:19 90° SW 21:47:20 10° SE visible
01 Apr - 23:38:07 10° W 23:53:42 40° SSW 00:14:33 10° SE visible
02 Apr - 02:10:31 10° SW 02:26:27 21° S 02:41:18 10° SSE visible
02 Apr - 04:46:25 10° SSW 05:00:25 20° S 05:11:22 10° SE visible
02 Apr - 07:14:21 10° SW 07:29:17 39° SSE 07:38:00 10° E daylight
02 Apr - 09:40:57 10° WSW 09:52:18 63° NW 09:58:29 10° NE daylight
02 Apr - 19:17:10 10° NNW 19:25:05 38° NE 19:39:08 10° ESE visible
02 Apr - 21:36:17 10° WNW 21:48:13 72° SSW 22:09:25 10° SE visible
03 Apr - 00:01:13 10° W 00:16:51 33° SSW 00:36:18 10° SE visible
03 Apr - 02:35:27 10° SW 02:50:36 20° S 03:04:22 10° SE visible
03 Apr - 05:08:51 10° SSW 05:23:56 24° SSE 05:35:03 10° ESE visible
03 Apr - 07:35:59 10° SW 07:51:32 52° SSE 08:00:01 10° ENE daylight
03 Apr - 10:03:33 10° WSW 10:13:28 40° NW 10:19:14 10° NNE daylight
03 Apr - 19:37:50 10° NW 19:46:23 53° NE 20:02:22 10° ESE visible
03 Apr - 21:58:03 10° WNW 22:10:25 57° SSW 22:31:18 10° SE visible
04 Apr - 00:24:53 10° WSW 00:40:19 27° SSW 00:58:15 10° SSE visible
04 Apr - 02:59:55 10° SW 03:14:47 19° S 03:28:04 10° SE visible
04 Apr - 05:30:49 10° SSW 05:47:09 29° SSE 05:58:20 10° ESE visible
04 Apr - 07:57:46 10° SW 08:13:29 70° SSE 08:21:39 10° ENE daylight
04 Apr - 10:26:44 10° W 10:34:37 25° NW 10:39:37 10° N daylight
04 Apr - 17:43:02 10° NNE 17:46:25 14° NE 17:51:23 10° ENE daylight
04 Apr - 19:58:45 10° NW 20:07:45 73° NE 20:25:05 10° ESE visible
04 Apr - 22:20:11 10° W 22:32:55 45° SSW 22:53:03 10° SE visible
05 Apr - 00:49:02 10° WSW 01:04:07 23° SSW 01:20:35 10° SSE visible
05 Apr - 03:23:35 10° SW 03:38:53 21° S 03:52:10 10° SE visible
05 Apr - 05:52:35 10° SW 06:10:04 36° SSE 06:21:07 10° E daylight
05 Apr - 08:19:48 10° SW 08:35:07 86° NW 08:42:58 10° NE daylight
05 Apr - 10:50:57 10° WNW 10:55:52 15° NW 10:59:17 10° N daylight
05 Apr - 18:02:25 10° N 18:07:48 23° NE 18:16:21 10° E daylight
05 Apr - 20:19:56 10° NW 20:29:19 86° SW 20:47:24 10° SE visible
05 Apr - 22:42:44 10° W 22:55:44 36° SSW 23:14:48 10° SE visible
06 Apr - 01:13:29 10° SW 01:28:09 21° S 01:43:31 10° SE visible
06 Apr - 03:46:28 10° SSW 04:02:47 23° SSE 04:16:18 10° ESE visible
06 Apr - 06:14:18 10° SW 06:32:41 46° SSE 06:43:28 10° E daylight
06 Apr - 08:42:10 10° WSW 08:56:30 62° NW 09:04:01 10° NE daylight
06 Apr - 18:22:38 10° NNW 18:29:02 35° NE 18:40:05 10° ESE visible
06 Apr - 20:41:24 10° WNW 20:51:09 66° SSW 21:09:24 10° SE visible
06 Apr - 23:05:46 10° WSW 23:18:52 29° SSW 23:36:38 10° SSE visible
07 Apr - 01:37:50 10° SW 01:52:21 20° S 02:07:09 10° SE visible
07 Apr - 04:08:46 10° SSW 04:26:23 28° SSE 04:40:04 10° ESE visible
07 Apr - 06:36:03 10° SW 06:54:58 59° SSE 07:05:24 10° ENE daylight
07 Apr - 09:04:59 10° WSW 09:17:44 43° NW 09:24:47 10° NNE daylight
07 Apr - 18:43:15 10° NW 18:50:13 52° NE 19:03:07 10° ESE visible
07 Apr - 21:03:10 10° WNW 21:13:16 50° SSW 21:31:12 10° SE visible
